GW1885 Weather Reports


Display with metric or nautical units.
time (UTC)temp
F
wind
direction
speed
MPH
gust
MPH
rain 1hr
in
rain 24hr
in
rain mn
in
humidity
%
barometer
mb
20260508225026 37 346 0.0 1.0 0.00 0.00 0.00 97 1021.9
20260508224504 37 346 0.0 1.0 0.00 0.00 0.00 97 1022.1
20260508224026 37 0 0.0 0.0 0.00 0.00 0.00 96 1022.2
20260508223504 37 0 0.0 0.0 0.00 0.00 0.00 96 1022.0
20260508223004 37 0 0.0 0.0 0.00 0.00 0.00 96 1022.1
20260508222505 37 0 0.0 0.0 0.00 0.00 0.00 96 1022.0
20260508222005 37 0 0.0 0.0 0.00 0.00 0.00 95 1022.1
20260508221525 37 0 0.0 0.0 0.00 0.00 0.00 95 1022.0
20260508221004 37 0 0.0 0.0 0.00 0.00 0.00 94 1021.9
20260508220504 37 0 0.0 0.0 0.00 0.00 0.00 94 1022.0
20260508220005 37 346 0.0 1.0 0.00 0.00 0.00 94 1022.1
20260508215504 38 346 0.0 1.0 0.00 0.00 0.00 94 1022.1
20260508215004 38 0 0.0 0.0 0.00 0.00 0.00 93 1022.1
20260508214505 38 0 0.0 0.0 0.00 0.00 0.00 93 1021.9
20260508214004 39 346 0.0 1.0 0.00 0.00 0.00 93 1022.0
20260508213505 39 346 0.0 1.0 0.00 0.00 0.00 94 1022.0
20260508213004 39 346 0.0 1.0 0.00 0.00 0.00 94 1022.0
20260508212504 39 346 0.0 1.0 0.00 0.00 0.00 94 1022.0
20260508212005 39 0 0.0 0.0 0.00 0.00 0.00 93 1021.9
20260508211505 39 0 0.0 0.0 0.00 0.00 0.00 93 1021.9
20260508211004 39 0 0.0 0.0 0.00 0.00 0.00 93 1021.8
20260508210505 39 0 0.0 0.0 0.00 0.00 0.00 92 1021.9
20260508210004 39 0 0.0 0.0 0.00 0.00 0.00 92 1021.8
20260508205525 39 0 0.0 0.0 0.00 0.00 0.00 92 1021.8
20260508205026 39 0 0.0 0.0 0.00 0.00 0.00 91 1021.9
20260508204505 39 0 0.0 0.0 0.00 0.00 0.00 91 1021.8
20260508204005 40 346 0.0 1.0 0.00 0.00 0.00 91 1021.6
20260508203504 40 346 0.0 1.0 0.00 0.00 0.00 90 1021.8
20260508203005 40 0 0.0 0.0 0.00 0.00 0.00 89 1021.8
20260508202504 40 346 0.0 1.0 0.00 0.00 0.00 89 1021.8
20260508202004 41 346 0.0 2.0 0.00 0.00 0.00 87 1021.7
20260508201505 41 348 0.0 2.0 0.00 0.00 0.00 87 1021.8
20260508201004 41 351 0.0 2.0 0.00 0.00 0.00 86 1021.7
20260508200504 41 348 0.0 2.0 0.00 0.00 0.00 86 1021.7
20260508200004 41 346 0.0 2.0 0.00 0.00 0.00 85 1021.5
20260508195504 42 345 0.0 2.0 0.00 0.00 0.00 85 1021.4
20260508195026 42 344 0.0 2.0 0.00 0.00 0.00 84 1021.6
20260508194504 42 345 0.0 3.0 0.00 0.00 0.00 84 1021.6
20260508194025 42 346 0.0 3.0 0.00 0.00 0.00 84 1021.5
20260508193505 42 347 0.0 2.0 0.00 0.00 0.00 83 1021.5
20260508193004 42 351 0.0 1.0 0.00 0.00 0.00 82 1021.3
20260508192504 43 351 0.0 1.0 0.00 0.00 0.00 82 1021.6
20260508192004 43 349 1.0 2.0 0.00 0.00 0.00 81 1021.5
20260508191505 43 346 0.0 2.0 0.00 0.00 0.00 80 1021.5
20260508191025 43 347 0.0 1.0 0.00 0.00 0.00 79 1021.6
20260508190504 44 345 0.0 2.0 0.00 0.00 0.00 78 1021.5
20260508190004 44 343 0.0 2.0 0.00 0.00 0.00 77 1021.5
20260508185503 44 343 0.0 2.0 0.00 0.00 0.00 76 1021.4
20260508185004 44 344 0.0 2.0 0.00 0.00 0.00 75 1021.4
20260508184504 45 344 0.0 1.0 0.00 0.00 0.00 74 1021.4
20260508184004 45 344 0.0 1.0 0.00 0.00 0.00 74 1021.4
20260508183505 46 344 0.0 1.0 0.00 0.00 0.00 73 1021.4
20260508183005 46 344 0.0 1.0 0.00 0.00 0.00 72 1021.4
20260508182504 46 346 0.0 3.0 0.00 0.00 0.00 71 1021.1
20260508182005 47 353 1.0 3.0 0.00 0.00 0.00 70 1021.3
20260508181526 47 360 1.0 3.0 0.00 0.00 0.00 69 1021.2
20260508181004 47 357 1.0 3.0 0.00 0.00 0.00 70 1021.2
20260508180505 47 345 0.0 3.0 0.00 0.00 0.00 68 1021.0
20260508180004 48 332 0.0 2.0 0.00 0.00 0.00 67 1021.0
20260508175504 48 321 1.0 2.0 0.00 0.00 0.00 69 1021.0
20260508175026 48 304 0.0 2.0 0.00 0.00 0.00 67 1021.0
20260508174503 49 316 1.0 6.0 0.00 0.00 0.00 66 1021.2
20260508174004 49 346 1.0 7.0 0.00 0.00 0.00 65 1020.9
20260508173503 49 345 1.0 7.0 0.00 0.00 0.00 64 1021.0
20260508173026 49 338 1.0 4.0 0.00 0.00 0.00 63 1021.0
20260508172504 49 6 1.0 6.0 0.00 0.00 0.00 65 1020.9
20260508172026 50 339 1.0 7.0 0.00 0.00 0.00 62 1021.0
20260508171503 50 333 1.0 7.0 0.00 0.00 0.00 62 1021.0
20260508171004 50 3 1.0 8.0 0.00 0.00 0.00 62 1021.0
20260508170505 50 349 2.0 8.0 0.00 0.00 0.00 59 1020.9
20260508170004 51 345 2.0 7.0 0.00 0.00 0.00 59 1021.0
20260508165504 51 1 1.0 6.0 0.00 0.00 0.00 58 1021.0
20260508165004 51 13 1.0 9.0 0.00 0.00 0.00 57 1020.9
20260508164505 52 358 1.0 9.0 0.00 0.00 0.00 56 1021.0
20260508164004 52 327 1.0 10.0 0.00 0.00 0.00 54 1020.9
20260508163524 52 346 1.0 10.0 0.00 0.00 0.00 55 1020.9
20260508163005 52 342 1.0 7.0 0.00 0.00 0.00 54 1020.7
20260508162525 52 351 1.0 7.0 0.00 0.00 0.00 54 1020.7
20260508162004 52 343 1.0 7.0 0.00 0.00 0.00 53 1020.7
20260508161503 53 341 2.0 9.0 0.00 0.00 0.00 52 1020.8
20260508161004 53 350 2.0 9.0 0.00 0.00 0.00 52 1020.9
20260508160525 53 349 2.0 8.0 0.00 0.00 0.00 52 1020.9
20260508160004 53 355 1.0 4.0 0.00 0.00 0.00 53 1020.7
20260508155524 54 336 2.0 9.0 0.00 0.00 0.00 54 1020.7
20260508155025 54 341 2.0 9.0 0.00 0.00 0.00 52 1020.8
20260508154505 54 360 2.0 7.0 0.00 0.00 0.00 52 1020.8
20260508154004 54 310 2.0 7.0 0.00 0.00 0.00 52 1020.9
20260508153503 54 340 2.0 10.0 0.00 0.00 0.00 54 1020.8
20260508153003 54 353 3.0 11.0 0.00 0.00 0.00 52 1020.7
20260508152503 55 337 2.0 11.0 0.00 0.00 0.00 54 1020.7
20260508152025 55 317 2.0 8.0 0.00 0.00 0.00 54 1020.7
20260508151503 54 331 2.0 10.0 0.00 0.00 0.00 57 1020.9
20260508151004 54 329 2.0 10.0 0.00 0.00 0.00 56 1021.0
20260508150504 54 326 1.0 6.0 0.00 0.00 0.00 53 1020.9
20260508150026 54 1 1.0 4.0 0.00 0.00 0.00 57 1021.1
20260508145504 54 28 1.0 2.0 0.00 0.00 0.00 54 1021.0
20260508145004 54 360 1.0 4.0 0.00 0.00 0.00 58 1021.0
20260508144504 54 293 1.0 8.0 0.00 0.00 0.00 53 1020.9
20260508144004 55 305 1.0 8.0 0.00 0.00 0.00 56 1020.9
20260508143503 55 358 1.0 7.0 0.00 0.00 0.00 52 1020.8
20260508143003 55 44 2.0 8.0 0.00 0.00 0.00 51 1021.0
20260508142504 54 43 2.0 8.0 0.00 0.00 0.00 51 1021.1
20260508142005 55 333 2.0 8.0 0.00 0.00 0.00 52 1021.0
20260508141505 55 349 2.0 10.0 0.00 0.00 0.00 50 1021.2
20260508141004 55 6 3.0 10.0 0.00 0.00 0.00 51 1020.9
20260508140503 56 360 2.0 7.0 0.00 0.00 0.00 52 1021.1
20260508140005 57 13 2.0 9.0 0.00 0.00 0.00 52 1020.9
20260508135504 57 19 2.0 9.0 0.00 0.00 0.00 51 1021.0
20260508135004 57 323 2.0 10.0 0.00 0.00 0.00 49 1021.0
20260508134503 57 336 2.0 10.0 0.00 0.00 0.00 54 1020.9
20260508134004 56 1 2.0 9.0 0.00 0.00 0.00 50 1021.0
20260508133503 57 1 2.0 8.0 0.00 0.00 0.00 48 1021.1
20260508133004 57 360 2.0 8.0 0.00 0.00 0.00 50 1021.2
20260508132503 57 287 2.0 8.0 0.00 0.00 0.00 49 1021.1
20260508132004 57 312 2.0 8.0 0.00 0.00 0.00 50 1021.2
20260508131524 56 351 3.0 13.0 0.00 0.00 0.00 51 1021.2
20260508131004 57 351 3.0 13.0 0.00 0.00 0.00 52 1021.2
20260508130504 57 9 2.0 10.0 0.00 0.00 0.00 51 1021.2
20260508130005 56 81 1.0 8.0 0.00 0.00 0.00 52 1021.2
20260508125504 57 12 2.0 9.0 0.00 0.00 0.00 49 1021.3
20260508125004 57 2 2.0 9.0 0.00 0.00 0.00 47 1021.3
20260508124525 57 6 2.0 8.0 0.00 0.00 0.00 49 1021.1
20260508124003 58 2 2.0 13.0 0.00 0.00 0.00 50 1021.1
20260508123505 60 3 2.0 13.0 0.00 0.00 0.00 46 1020.9
20260508123004 60 341 3.0 9.0 0.00 0.00 0.00 48 1020.9
20260508122503 61 326 2.0 9.0 0.00 0.00 0.00 44 1021.0
20260508122005 61 1 2.0 7.0 0.00 0.00 0.00 52 1020.9
20260508121526 60 358 2.0 7.0 0.00 0.00 0.00 48 1020.8
20260508121004 61 356 2.0 7.0 0.00 0.00 0.00 53 1021.0
20260508120503 60 9 2.0 7.0 0.00 0.00 0.00 46 1020.9
20260508120025 60 7 2.0 10.0 0.00 0.00 0.00 41 1021.1
20260508115504 60 33 2.0 10.0 0.00 0.00 0.00 45 1021.2
20260508115026 60 9 2.0 7.0 0.00 0.00 0.00 46 1021.0
20260508114503 60 14 2.0 13.0 0.00 0.00 0.00 44 1020.9
20260508114004 60 34 2.0 13.0 0.00 0.00 0.00 50 1021.0
20260508113503 59 86 2.0 13.0 0.00 0.00 0.00 48 1020.9
20260508113004 59 46 2.0 13.0 0.00 0.00 0.00 50 1021.0
20260508112504 59 8 2.0 7.0 0.00 0.00 0.00 48 1021.0
20260508112003 60 345 2.0 9.0 0.00 0.00 0.00 45 1020.9
20260508111524 59 356 2.0 9.0 0.00 0.00 0.00 46 1021.0
20260508111004 60 353 2.0 9.0 0.00 0.00 0.00 49 1020.9
20260508110503 59 340 2.0 9.0 0.00 0.00 0.00 56 1021.0
20260508110005 59 11 2.0 7.0 0.00 0.00 0.00 46 1021.0
20260508105504 60 52 2.0 11.0 0.00 0.00 0.00 56 1020.9
20260508105005 60 18 3.0 11.0 0.00 0.00 0.00 46 1020.9
20260508104504 60 358 2.0 8.0 0.00 0.00 0.00 51 1020.8
20260508104004 59 30 1.0 8.0 0.00 0.00 0.00 57 1021.0
20260508103503 57 36 2.0 8.0 0.00 0.00 0.00 48 1020.7
20260508103004 58 52 2.0 7.0 0.00 0.00 0.00 48 1020.9
20260508102503 58 38 1.0 7.0 0.00 0.00 0.00 48 1021.0
20260508102003 59 32 1.0 7.0 0.00 0.00 0.00 50 1020.9
20260508101524 59 24 2.0 8.0 0.00 0.00 0.00 45 1021.0
20260508101025 59 5 2.0 8.0 0.00 0.00 0.00 50 1020.8
20260508100524 60 15 2.0 6.0 0.00 0.00 0.00 49 1020.9
20260508100004 60 29 1.0 9.0 0.00 0.00 0.00 47 1020.9
20260508095525 60 43 2.0 9.0 0.00 0.00 0.00 49 1020.7
20260508095003 60 61 1.0 4.0 0.00 0.00 0.00 44 1020.7
20260508094503 59 47 1.0 6.0 0.00 0.00 0.00 49 1021.0
20260508094003 57 81 1.0 8.0 0.00 0.00 0.00 53 1020.7
20260508093504 58 56 2.0 9.0 0.00 0.00 0.00 48 1020.7
20260508093025 58 57 1.0 9.0 0.00 0.00 0.00 50 1020.7
20260508092504 59 55 1.0 6.0 0.00 0.00 0.00 47 1020.8
20260508092003 58 5 1.0 6.0 0.00 0.00 0.00 51 1020.7
20260508091503 59 5 1.0 6.0 0.00 0.00 0.00 46 1020.8
20260508091004 60 42 1.0 6.0 0.00 0.00 0.00 41 1020.7
20260508090504 60 24 2.0 7.0 0.00 0.00 0.00 51 1020.7
20260508090005 59 359 2.0 7.0 0.00 0.00 0.00 50 1020.8
20260508085504 58 357 1.0 7.0 0.00 0.00 0.00 48 1020.9
20260508085004 57 341 1.0 7.0 0.00 0.00 0.00 47 1020.8
20260508084526 56 350 2.0 8.0 0.00 0.00 0.00 44 1020.8
20260508084005 56 6 1.0 8.0 0.00 0.00 0.00 45 1020.9
20260508083505 57 3 2.0 7.0 0.00 0.00 0.00 48 1020.9
20260508083005 57 359 2.0 7.0 0.00 0.00 0.00 48 1020.8
20260508082505 57 348 2.0 6.0 0.00 0.00 0.00 45 1020.8
20260508082005 57 342 2.0 7.0 0.00 0.00 0.00 51 1020.7
20260508081505 56 358 2.0 10.0 0.00 0.00 0.00 46 1020.8
20260508081004 56 345 3.0 10.0 0.00 0.00 0.00 48 1020.7
20260508080505 56 318 2.0 10.0 0.00 0.00 0.00 47 1020.7
20260508080005 57 328 2.0 10.0 0.00 0.00 0.00 51 1020.8
20260508075505 57 338 2.0 8.0 0.00 0.00 0.00 54 1020.7
20260508075026 56 340 1.0 8.0 0.00 0.00 0.00 48 1020.7
20260508074504 56 1 1.0 13.0 0.00 0.00 0.00 51 1020.7
20260508074004 55 3 2.0 13.0 0.00 0.00 0.00 55 1020.6
20260508073505 55 18 1.0 7.0 0.00 0.00 0.00 60 1020.7
20260508073004 54 39 1.0 4.0 0.00 0.00 0.00 67 1020.7
20260508072504 54 51 1.0 3.0 0.00 0.00 0.00 66 1020.6
20260508072026 53 348 2.0 7.0 0.00 0.00 0.00 68 1020.7
20260508071504 53 332 2.0 7.0 0.00 0.00 0.00 68 1020.7
20260508071005 53 353 1.0 6.0 0.00 0.00 0.00 73 1020.8
20260508070504 53 337 1.0 4.0 0.00 0.00 0.00 74 1020.8
20260508070005 52 306 1.0 6.0 0.00 0.00 0.00 75 1020.6
20260508065505 52 321 1.0 6.0 0.00 0.00 0.00 74 1020.8
20260508065005 52 338 1.0 4.0 0.00 0.00 0.00 72 1021.0
20260508064505 51 333 1.0 4.0 0.00 0.00 0.00 76 1020.9
20260508064004 50 334 1.0 4.0 0.00 0.00 0.00 79 1020.8
20260508063505 49 354 1.0 6.0 0.00 0.00 0.00 77 1020.9
20260508063004 50 353 1.0 6.0 0.00 0.00 0.00 76 1020.7
20260508062505 49 342 1.0 4.0 0.00 0.00 0.00 79 1020.7
20260508062005 48 340 1.0 4.0 0.00 0.00 0.00 82 1020.7
20260508061504 48 350 1.0 4.0 0.00 0.00 0.00 82 1020.7
20260508061004 47 3 1.0 4.0 0.00 0.00 0.00 81 1020.7
20260508060504 47 9 1.0 4.0 0.00 0.00 0.00 84 1020.6
20260508060004 46 9 1.0 6.0 0.00 0.00 0.00 83 1020.5
20260508055525 46 13 1.0 6.0 0.00 0.00 0.00 85 1020.5
20260508055005 46 20 1.0 4.0 0.00 0.00 0.00 84 1020.4
20260508054504 45 15 1.0 4.0 0.00 0.00 0.00 85 1020.5
20260508054026 46 12 1.0 3.0 0.00 0.00 0.00 86 1020.5
20260508053505 45 11 0.0 2.0 0.00 0.00 0.00 88 1020.5
20260508053004 44 10 0.0 2.0 0.00 0.00 0.00 88 1020.4
20260508052504 44 6 1.0 3.0 0.00 0.00 0.00 88 1020.5
20260508052005 44 4 1.0 4.0 0.00 0.00 0.00 87 1020.5
20260508051505 44 3 1.0 4.0 0.00 0.00 0.00 89 1020.5
20260508051026 44 357 1.0 3.0 0.00 0.00 0.00 88 1020.5
20260508050505 43 355 1.0 3.0 0.00 0.00 0.00 90 1020.3
20260508050004 43 356 1.0 3.0 0.00 0.00 0.00 89 1020.3
20260508045504 43 352 1.0 3.0 0.00 0.00 0.00 89 1020.4
20260508045026 43 341 0.0 2.0 0.00 0.00 0.00 91 1020.2
20260508044504 43 341 0.0 2.0 0.00 0.00 0.00 92 1020.2
20260508044005 42 342 0.0 1.0 0.00 0.00 0.00 92 1020.2
20260508043504 42 342 0.0 2.0 0.00 0.00 0.00 92 1020.2
20260508043025 42 344 0.0 2.0 0.00 0.00 0.00 93 1020.1
20260508042526 42 346 0.0 2.0 0.00 0.00 0.00 92 1020.0
20260508042005 41 348 0.0 1.0 0.00 0.00 0.00 93 1020.2
20260508041526 41 348 0.0 1.0 0.00 0.00 0.00 92 1020.1
20260508041004 41 350 0.0 1.0 0.00 0.00 0.00 93 1020.0
20260508040505 41 352 0.0 1.0 0.00 0.00 0.00 92 1020.0
20260508040025 41 353 0.0 1.0 0.00 0.00 0.00 92 1019.9
20260508035504 41 354 0.0 2.0 0.00 0.00 0.00 93 1019.9
20260508035005 41 354 0.0 1.0 0.00 0.00 0.00 92 1020.1
20260508034504 41 354 0.0 2.0 0.00 0.00 0.00 92 1019.9
20260508034005 41 358 0.0 2.0 0.00 0.00 0.00 92 1019.9
20260508033525 41 2 0.0 2.0 0.00 0.00 0.00 92 1019.9
20260508033026 41 355 0.0 1.0 0.00 0.00 0.00 92 1019.8
20260508032505 41 346 0.0 1.0 0.00 0.00 0.00 93 1019.9
20260508032004 41 339 0.0 1.0 0.00 0.00 0.00 92 1019.8
20260508031505 41 329 1.0 2.0 0.00 0.00 0.00 93 1019.8
20260508031005 41 325 1.0 3.0 0.00 0.00 0.00 92 1019.7
20260508030504 41 332 1.0 4.0 0.00 0.00 0.00 92 1019.6
20260508030004 41 341 1.0 4.0 0.00 0.00 0.00 92 1019.7
20260508025526 41 354 1.0 2.0 0.00 0.00 0.00 92 1019.7
20260508025025 41 356 1.0 2.0 0.00 0.00 0.00 92 1019.6
20260508024504 41 355 1.0 4.0 0.00 0.00 0.00 92 1019.6
20260508024004 41 359 1.0 4.0 0.00 0.00 0.00 92 1019.6
20260508023505 41 359 1.0 3.0 0.00 0.00 0.00 93 1019.5
20260508023004 41 356 1.0 4.0 0.00 0.00 0.00 93 1019.5
20260508022525 41 349 1.0 4.0 0.00 0.00 0.00 93 1019.3
20260508022004 41 328 0.0 3.0 0.00 0.00 0.00 93 1019.8
20260508021504 41 327 0.0 3.0 0.00 0.00 0.00 93 1019.6
20260508021005 41 337 1.0 3.0 0.00 0.00 0.00 93 1019.5
20260508020504 41 345 1.0 3.0 0.00 0.00 0.00 93 1019.5
20260508020004 41 348 1.0 2.0 0.00 0.00 0.00 93 1019.6
20260508015505 41 354 1.0 2.0 0.00 0.00 0.00 93 1019.4
20260508015004 41 356 1.0 2.0 0.00 0.00 0.00 93 1019.4
20260508014525 41 349 0.0 4.0 0.00 0.00 0.00 93 1019.5
20260508014004 41 344 0.0 4.0 0.00 0.00 0.00 94 1019.3
20260508013504 41 350 0.0 3.0 0.00 0.00 0.00 94 1019.5
20260508013004 41 353 0.0 3.0 0.00 0.00 0.00 94 1019.3
20260508012505 41 348 0.0 2.0 0.00 0.00 0.00 94 1019.3
20260508012005 41 347 0.0 1.0 0.00 0.00 0.00 94 1019.3
20260508011505 41 346 0.0 2.0 0.00 0.00 0.00 94 1019.3
20260508011004 41 347 0.0 3.0 0.00 0.00 0.00 94 1019.3
20260508010504 41 350 0.0 3.0 0.00 0.00 0.00 95 1019.1
20260508010005 41 351 0.0 3.0 0.00 0.00 0.00 95 1019.4
20260508005526 41 352 1.0 3.0 0.00 0.00 0.00 95 1019.2
20260508005004 41 353 0.0 2.0 0.00 0.00 0.00 95 1019.3
20260508004525 41 355 0.0 2.0 0.00 0.00 0.00 95 1019.2
20260508004004 41 357 0.0 1.0 0.00 0.00 0.00 95 1019.3
20260508003525 41 358 0.0 1.0 0.00 0.00 0.00 95 1019.2
20260508003005 41 360 0.0 1.0 0.00 0.00 0.00 95 1019.3
20260508002504 41 360 0.0 3.0 0.00 0.00 0.00 95 1019.3
20260508002004 41 359 0.0 3.0 0.00 0.00 0.00 95 1019.5
20260508001504 41 358 0.0 2.0 0.00 0.00 0.00 95 1019.5
20260508001025 41 4 0.0 1.0 0.00 0.00 0.00 96 1019.6
20260508000525 41 6 0.0 1.0 0.00 0.00 0.00 96 1019.5
20260508000005 41 5 0.0 2.0 0.00 0.00 0.00 96 1019.4
20260507235505 41 358 0.0 2.0 0.00 0.00 0.00 97 1019.4
20260507235004 41 353 0.0 1.0 0.00 0.00 0.00 97 1019.4
20260507234504 41 353 0.0 2.0 0.00 0.00 0.00 97 1019.4
20260507234005 41 360 0.0 2.0 0.00 0.00 0.00 97 1019.4
20260507233504 41 6 0.0 2.0 0.00 0.00 0.00 97 1019.3
20260507233025 41 352 0.0 2.0 0.00 0.00 0.00 97 1019.2
20260507232525 40 340 0.0 1.0 0.00 0.00 0.00 98 1019.1
20260507232004 40 341 0.0 2.0 0.00 0.00 0.00 98 1018.9
20260507231504 40 342 1.0 2.0 0.00 0.00 0.00 98 1019.1
20260507231004 40 344 0.0 2.0 0.00 0.00 0.00 98 1019.0
20260507230504 40 344 0.0 2.0 0.00 0.00 0.00 98 1019.1
20260507230025 40 344 0.0 2.0 0.00 0.00 0.00 98 1019.0
20260507225505 40 344 0.0 2.0 0.00 0.00 0.00 98 1019.1